Location: Kershaw
(34.5481°N, 80.5823°W)
Time: 19:46:58
(UTC+00:00)

Transit 2A - Pass Details

Date: 09 October 2022
Orbit: 598 x 959 km, 66.7° (Epoch: 03 December)

Event Time Altitude Azimuth Distance (km) Brightness Sun altitude
Rises 12:37:58 0° 323° (NW) 3,053 8.6 14.2°
Reaches altitude 10° 12:40:19 10° 316° (NW) 2,185 7.9 14.6°
Maximum altitude 12:44:55 38° 248° (WSW) 1,139 6.7 15.5°
Drops below altitude 10° 12:49:58 10° 182° (S) 2,397 8.9 16.5°
Sets 12:52:39 0° 174° (S) 3,387 9.7 17.0°
